SV1EML-13 Weather Reports


time (UTC)temp
C
wind
direction
speed
KPH
gust
KPH
rain 1hr
cm
rain 24hr
cm
rain mn
cm
humidity
%
barometer
mb
20260507192306 20 0.0 0.0 0.00 0.00 0.00 70 1019.0
20260507183805 20 0.0 0.0 0.00 0.00 0.00 80 1018.9
20260507175307 20 0.0 0.0 0.00 0.00 0.00 79 1018.7
20260507170805 21 0.0 0.0 0.00 0.00 0.00 70 1018.6
20260507162307 21 0.0 0.0 0.00 0.00 0.00 63 1018.2
20260507153805 22 0.0 0.0 0.00 0.00 0.00 69 1018.3
20260507145307 22 0.0 0.0 0.00 0.00 0.00 64 1018.5
20260507140805 22 0.0 0.0 0.00 0.00 0.00 48 1018.6
20260507132307 23 0.0 0.0 0.00 0.00 0.00 53 1018.1
20260507123805 22 0.0 0.0 0.00 0.00 0.00 84 1018.6
20260507115307 23 0.0 0.0 0.00 0.00 0.00 98 1018.8
20260507110805 22 0.0 0.0 0.00 0.00 0.00 10 1019.2
20260507102307 22 0.0 0.0 0.00 0.00 0.00 10 1018.6
20260507093805 22 0.0 0.0 0.00 0.00 0.00 10 1018.7
20260507085306 22 0.0 0.0 0.00 0.00 0.00 10 1018.5
20260507080805 21 0.0 0.0 0.00 0.00 0.00 10 1018.7
20260507072307 21 0.0 0.0 0.00 0.00 0.00 10 1018.2
20260507063805 20 0.0 0.0 0.00 0.00 0.00 10 1018.5
20260507055306 20 0.0 0.0 0.00 0.00 0.00 10 1018.2
20260507050805 18 0.0 0.0 0.00 0.00 0.00 10 1017.5
20260507042307 17 0.0 0.0 0.00 0.00 0.00 10 1017.5
20260507033805 17 0.0 0.0 0.00 0.00 0.00 10 1017.6
20260507025306 17 0.0 0.0 0.00 0.00 0.00 10 1017.3
20260507020805 17 0.0 0.0 0.00 0.00 0.00 10 1017.2
20260507012306 17 0.0 0.0 0.00 0.00 0.00 10 1017.0
20260507003805 18 0.0 0.0 0.00 0.00 0.00 10 1016.5
20260506235306 18 0.0 0.0 0.00 0.00 0.00 10 1016.7
20260506230805 18 0.0 0.0 0.00 0.00 0.00 10 1017.2
20260506222306 18 0.0 0.0 0.00 0.00 0.00 10 1017.3
20260506205306 20 0.0 0.0 0.00 0.00 0.00 10 1017.7
20260506200805 20 0.0 0.0 0.00 0.00 0.00 87 1017.6